sat.trackr.live / text

‹ back to catalog

STARLINK-34093

NORAD 64015 · 2025-101X

PAYLOAD ACTIVE UNKNOWN

§ Identity

Operator
Country
US
Launch date
2025-05-14
Launch site
AFETR
Launch vehicle
Mass (kg)
RCS (m²)

Purposes: comms

External: N2YO · Heavens-Above · Gunter

§ Orbital elements

Epoch: 2026-05-24T18:35:38.732640Z

Period
94.27 min
Inclination
43.0013°
Eccentricity
0.0001268
Mean motion
15.27568531 rev/d
Perigee alt
482.2 km
Apogee alt
484.0 km
Semi-major
6,861.2 km
B*
3.7648e-4
RAAN
288.0804°
Arg perigee
276.7627°
Mean anomaly
83.3080°
Rev number
5,869

§ Raw data

STARLINK-340931 64015U 25101X   26144.77475385  .00010108  00000+0  37648-3 0  99982 64015  43.0013 288.0804 0001268 276.7627  83.3080 15.27568531 58696

JSON: /api/v1/satellites/64015 · /tle

For live sub-satellite position, see the globe view (requires WebGL).

§ Visibility from observer

Set your observer location to see the next 7 days of passes ≥ 10°. The values pass through the URL so the page stays shareable.

No JS? Fill the form by hand. The geolocation button needs JavaScript.